Hourly Data Report for September 22, 2020

GIMLI CLIMATE
MANITOBA
Current Station Operator: ECCC - MSC

50°38'00.000" N
97°03'00.000" W
230.10 m
5031042
71748
PGH

Download Data

Hourly Data (September 2020)
Hourly Data Report for September 22, 2020
TIME Temp Definition
°C
Dew Point Definition
°C
Rel Hum Definition
%
Wind Dir Definition
10's deg

Wind Spd Definition
km/h
Visibility Definition
km
Stn Press Definition
kPa
Hmdx Definition


Wind Chill Definition


Weather Definition


00:00 9.9 8.5 91 21 6   98.70     LegendNANA
01:00 8.0 6.8 92 21 6   98.71     LegendNANA
02:00 5.8 4.7 93 23 6   98.74     LegendNANA
03:00 6.6 5.6 94 23 6   98.75     LegendNANA
04:00 6.5 5.6 94 23 5   98.78     LegendNANA
05:00 6.4 5.5 94 24 5   98.80     LegendNANA
06:00 6.2 5.3 94 20 2   98.84     LegendNANA
07:00 6.8 5.9 94 18 6   98.86     LegendNANA
08:00 10.0 8.5 90 18 6   98.86     LegendNANA
09:00 11.9 8.3 79 16 7   98.84     LegendNANA
10:00 17.4 8.0 54 17 10   98.78     LegendNANA
11:00 19.5 9.9 54 13 10   98.73     LegendNANA
12:00 21.5 9.4 46 13 13   98.61     LegendNANA
13:00 23.8 8.3 37 13 16   98.49     LegendNANA
14:00 27.3 5.9 26 18 26   98.38 27   LegendNANA
15:00 27.8 6.0 25 19 25   98.28 27   LegendNANA
16:00 25.9 8.0 32 14 13   98.21 26   LegendNANA
17:00 28.0 5.5 24 27 13   98.17 27   LegendNANA
18:00 24.9 6.6 31 31 15   98.21 25   LegendNANA
19:00 21.1 7.1 40 32 12   98.29     LegendNANA
20:00 19.0 7.1 46 33 15   98.36     LegendNANA
21:00 17.9 8.7 55 33 23   98.44     LegendNANA
22:00 15.7 9.1 65 33 23   98.51     LegendNANA
23:00 14.3 9.6 73 34 24   98.63     LegendNANA

Notes on Data Quality.

Legend

  • E = Estimated
  • M = Missing
  • NA = Not Available*
  • [empty] = Indicates an unobserved value
Date modified: